軌道要素
Epoch 2013 Apr. 18.0 TT = JDT 2456400.5
T 2013 Apr. 20.59769 TT MPC
q 4.8168677 (2000.0) P Q
n 0.07163193 Peri. 310.37577 +0.89513084 -0.39389298
a 5.7420233 Node 73.75226 +0.44562446 +0.77730966
e 0.1611201 Incl. 12.56021 +0.01263392 +0.49054870
P 13.8
From 37 observations 2012 Oct. 10-Nov. 13, mean residual 0".5.
|